{"data":{"norad_id":63087,"intl_designator":"2025-037L","name":"STARLINK-32918","alt_names":[],"object_type":"PAYLOAD","status":"ACTIVE","operator":null,"country":"US","launch_date":"2025-02-23","launch_site_code":"AFWTR","launch_vehicle":null,"mission":null,"orbit_class":"UNKNOWN","rcs_meters":null,"size_class":null,"mass_kg":null,"dimensions":null,"purposes":["comms"],"wikipedia_slug":null,"has_3d_model":false,"image_url":null,"decayed_at":null,"tle_current":{"epoch":"2026-05-25T03:48:57.245760Z","epoch_age_seconds":71829,"freshness":"FRESH","line1":"1 63087U 25037L   26145.15899590  .00002071  00000+0  18130-3 0  9990","line2":"2 63087  70.0005 161.7590 0004417 264.5722  95.4933 14.98336071 70148","mean_motion":14.98336071,"eccentricity":0.0004417,"inclination_deg":70.0005,"raan_deg":161.759,"arg_perigee_deg":264.5722,"mean_anomaly_deg":95.4933,"bstar":0.0001813,"rev_number":7014,"period_min":96.106609716666,"perigee_km":568.96722503365,"apogee_km":575.10700884856,"semimajor_km":6950.1741169411,"source":"CELESTRAK","updated_at":"2026-05-25T13:38:19.878914Z"}}}